Savannah, GA

3:26 AM EDT on July 22, 2017 (GMT -0400)
Savannah International

Weather History for KSAV - May, 2014

Change the Weather History Date:

Friday, May 16, 2014

  Actual Average Record
Temperature  
Mean Temperature 65 °F 73 °F  
Max Temperature 77 °F 85 °F 95 °F (1915)
Min Temperature 53 °F 62 °F 50 °F (1954)
Degree Days  
Heating Degree Days 0 0  
Month to date heating degree days 0 6  
Since 1 July heating degree days 1682 1809  
Cooling Degree Days 0 9  
Month to date cooling degree days 157 109  
Year to date cooling degree days 325 245  
Growing Degree Days 15 (Base 50)    
Moisture  
Dew Point 48 °F    
Average Humidity 57    
Maximum Humidity 83    
Minimum Humidity 31    
Precipitation  
Precipitation 0.00 in 0.09 in 4.10 in (1934)
Month to date precipitation 2.59 1.34  
Year to date precipitation 14.90 14.62  
Sea Level Pressure  
Sea Level Pressure 30.02 in    
Wind  
Wind Speed 10 mph (WNW)    
Max Wind Speed 22 mph    
Max Gust Speed 28 mph    
Visibility 10 miles    
Events      
T = Trace of Precipitation, MM = Missing Value Source: NWS Daily Summary

Daily Weather History Graph

Daily Weather History Graph

Search for Another Location

Airport or City:

Trip Planner

Search our weather history database for the weather conditions in past years. The results will help you decide how hot, cold, wet, or windy it might be!

Date:

Astronomy

May. 16, 2014 Rise Set
Actual Time 6:26 AM EDT 8:16 PM EDT
Civil Twilight 5:59 AM EDT 8:43 PM EDT
Nautical Twilight 5:27 AM EDT 9:15 PM EDT
Astronomical Twilight 4:52 AM EDT 9:50 PM EDT
Moon 10:21 PM EDT (5/16) 8:06 AM EDT (5/16)
Length of Visible Light 14h 43m
Length of Day
13h 49m
Waning Gibbous, 95% of the Moon is Illuminated
May 16
Waning Gibbous
May 21
Last Quarter
May 28
New
Jun 5
First Quarter
Jun 13
Full

Hourly Weather History & Observations

Time (EDT) Temp. Dew Point Humidity Pressure Visibility Wind Dir Wind Speed Gust Speed Precip Events Conditions
12:03 AM 64.4 °F 57.2 °F 77% 29.96 in 10.0 mi WNW 9.2 mph - N/A   Overcast
12:53 AM 64.0 °F 55.9 °F 75% 29.96 in 10.0 mi WNW 13.8 mph 17.3 mph N/A   Overcast
1:53 AM 62.1 °F 54.0 °F 75% 29.96 in 10.0 mi WNW 9.2 mph - N/A   Clear
2:53 AM 60.1 °F 51.1 °F 72% 29.96 in 10.0 mi WNW 10.4 mph - N/A   Clear
3:53 AM 57.9 °F 48.9 °F 72% 29.96 in 10.0 mi WNW 9.2 mph - N/A   Clear
4:53 AM 55.0 °F 48.0 °F 77% 29.96 in 10.0 mi WNW 9.2 mph - N/A   Clear
5:53 AM 54.0 °F 48.0 °F 80% 29.99 in 10.0 mi West 8.1 mph - N/A   Clear
6:53 AM 54.0 °F 46.9 °F 77% 30.00 in 10.0 mi WNW 9.2 mph - N/A   Clear
7:53 AM 55.9 °F 46.9 °F 72% 30.02 in 10.0 mi WNW 9.2 mph - N/A   Clear
8:53 AM 59.0 °F 46.9 °F 64% 30.03 in 10.0 mi NW 13.8 mph - N/A   Partly Cloudy
9:53 AM 63.0 °F 48.0 °F 58% 30.04 in 10.0 mi WNW 12.7 mph - N/A   Partly Cloudy
10:53 AM 66.0 °F 48.0 °F 52% 30.05 in 10.0 mi NW 12.7 mph - N/A   Clear
11:53 AM 71.1 °F 45.0 °F 39% 30.06 in 10.0 mi NW 12.7 mph 19.6 mph N/A   Clear
12:53 PM 72.0 °F 41.0 °F 33% 30.05 in 10.0 mi NW 17.3 mph 26.5 mph N/A   Clear
1:53 PM 75.0 °F 44.1 °F 33% 30.04 in 10.0 mi WNW 13.8 mph 24.2 mph N/A   Clear
2:53 PM 75.9 °F 43.0 °F 31% 30.03 in 10.0 mi NW 19.6 mph 25.3 mph N/A   Clear
3:53 PM 77.0 °F 45.0 °F 32% 30.02 in 10.0 mi West 13.8 mph 25.3 mph N/A   Clear
4:53 PM 75.9 °F 43.0 °F 31% 30.00 in 10.0 mi West 15.0 mph 24.2 mph N/A   Clear
5:53 PM 75.2 °F 45.0 °F 34% 30.00 in 10.0 mi WNW 13.8 mph 23.0 mph N/A   Clear
6:53 PM 75.0 °F 45.0 °F 34% 30.01 in 10.0 mi West 9.2 mph - N/A   Partly Cloudy
7:53 PM 73.0 °F 45.0 °F 37% 30.03 in 10.0 mi WNW 8.1 mph - N/A   Clear
8:53 PM 69.1 °F 46.9 °F 45% 30.06 in 10.0 mi West 3.5 mph - N/A   Clear
9:53 PM 63.0 °F 51.1 °F 65% 30.08 in 10.0 mi Calm Calm - N/A   Clear
10:53 PM 62.1 °F 51.1 °F 67% 30.11 in 10.0 mi Calm Calm - N/A   Clear
11:53 PM 57.9 °F 52.0 °F 81% 30.12 in 10.0 mi Calm Calm - N/A   Clear